Location: Kielce
(50.8833°N, 20.6167°E)
Time: 06:28:06
(UTC+02:00)

Vanguard 1 Rocket - All Passes

Search period start: 14 April 2021 00:00
Search period end: 24 April 2021 00:00
Orbit: 653 x 4223 km, 34.3° (Epoch: 12 April)

Date Brightness Start Highest point End Pass type
(mag) Time Alt. Az. Time Alt. Az. Time Alt. Az.
14 Apr - 17:00:22 10° SSW 17:02:09 12° S 17:04:03 10° SSE daylight
14 Apr - 19:23:21 10° SW 19:26:05 13° S 19:29:23 10° SSE daylight
15 Apr - 18:13:07 10° SSW 18:15:24 13° S 18:18:02 10° SSE daylight
16 Apr - 17:03:16 10° SSW 17:04:52 12° S 17:06:35 10° SSE daylight
17 Apr - 18:17:11 10° SSW 18:18:11 10° S 18:19:13 10° S daylight
18 Apr - 17:06:36 10° SSW 17:07:36 11° S 17:08:39 10° SSE daylight
19 Apr - 15:56:21 10° S 15:57:07 10° S 15:57:52 10° SSE daylight
21 Apr - 15:59:06 10° SSW 15:59:50 10° S 16:00:33 10° S daylight
22 Apr - 14:47:44 10° SSW 14:49:20 11° S 14:50:50 10° SSE daylight
23 Apr - 13:36:37 10° SSW 13:38:46 12° S 13:40:41 10° SSE daylight
